Weather History for Torrington, WY

Change the Weather History Date:

Wednesday, December 12, 2012

  Actual Average Record
Temperature  
Mean Temperature 44 °F 27 °F  
Max Temperature 59 °F 40 °F 59 °F (2012)
Min Temperature 29 °F 14 °F -10 °F (2007)
Degree Days  
Heating Degree Days 21 38  
Month to date heating degree days 340 445  
Since 1 July heating degree days 1683 2028  
Cooling Degree Days 0 0  
Month to date cooling degree days 0 0  
Year to date cooling degree days 1021 678  
Moisture  
Dew Point 16 °F    
Average Humidity 34    
Maximum Humidity 51    
Minimum Humidity 17    
Precipitation  
Precipitation 0.00 in 0.01 in 0.01 in (2004)
Month to date precipitation T 0.16  
Year to date precipitation 7.00 14.00  
Sea Level Pressure  
Sea Level Pressure 29.73 in    
Wind  
Wind Speed 10 mph (SW)    
Max Wind Speed 29 mph    
Max Gust Speed 45 mph    
Visibility 10 miles    
Events      
T = Trace of Precipitation, MM = Missing Value Source: NWS Daily Summary

Daily Weather History Graph

Daily Weather History Graph

Search for Another Location

Airport:

Trip Planner

Search our weather history database for the weather conditions in past years. The results will help you decide how hot, cold, wet, or windy it might be!

Date:

Astronomy

Dec. 12, 2012 Rise Set
Actual Time 7:16 AM MST 4:25 PM MST
Civil Twilight 6:44 AM MST 4:56 PM MST
Nautical Twilight 6:09 AM MST 5:32 PM MST
Astronomical Twilight 5:35 AM MST 6:06 PM MST
Moon 6:22 AM MST (12/12) 4:05 PM MST (12/12)
Length of Visible Light 10h 12m
Length of Day
9h 09m
Waning Crescent, 0% of the Moon is Illuminated
Dec 12
Waning Crescent
Dec 13
New
Dec 19
First Quarter
Dec 28
Full
Jan 4
Last Quarter

Hourly Weather History & Observations

Time (MST) Temp. Windchill Dew Point Humidity Pressure Visibility Wind Dir Wind Speed Gust Speed Precip Events Conditions
12:53 AM 35.1 °F 30.1 °F 18.0 °F 50% 29.71 in 10.0 mi SE 5.8 mph - N/A   Clear
1:53 AM 34.0 °F 26.6 °F 18.0 °F 52% 29.71 in 10.0 mi SE 9.2 mph - N/A   Clear
2:53 AM 33.1 °F 26.9 °F 17.1 °F 52% 29.70 in 10.0 mi SSE 6.9 mph - N/A   Clear
3:53 AM 32.0 °F 27.5 °F 16.0 °F 52% 29.70 in 10.0 mi South 4.6 mph - N/A   Scattered Clouds
4:53 AM 39.9 °F 35.8 °F 17.1 °F 40% 29.69 in 10.0 mi SSW 5.8 mph - N/A   Clear
5:53 AM 36.0 °F 31.1 °F 17.1 °F 46% 29.71 in 10.0 mi SE 5.8 mph - N/A   Partly Cloudy
6:53 AM 39.9 °F 32.9 °F 16.0 °F 38% 29.70 in 10.0 mi SW 11.5 mph - N/A   Clear
7:53 AM 39.9 °F 36.7 °F 16.0 °F 38% 29.73 in 10.0 mi SW 4.6 mph - N/A   Clear
8:53 AM 42.1 °F 35.7 °F 16.0 °F 35% 29.73 in 10.0 mi SW 11.5 mph - N/A   Clear
9:53 AM 45.0 °F 40.1 °F 16.0 °F 31% 29.73 in 10.0 mi SW 9.2 mph - N/A   Clear
10:53 AM 51.1 °F - 16.0 °F 25% 29.71 in 10.0 mi WSW 10.4 mph 18.4 mph N/A   Clear
11:53 AM 54.0 °F - 14.0 °F 21% 29.66 in 10.0 mi WSW 15.0 mph - N/A   Clear
12:53 PM 55.9 °F - 12.9 °F 18% 29.65 in 10.0 mi West 12.7 mph - N/A   Clear
1:53 PM 57.9 °F - 14.0 °F 18% 29.65 in 10.0 mi West 5.8 mph - N/A   Clear
2:53 PM 57.0 °F - 14.0 °F 18% 29.68 in 10.0 mi West 24.2 mph 35.7 mph N/A   Clear
3:53 PM 52.0 °F - 15.1 °F 23% 29.72 in 10.0 mi West 20.7 mph 34.5 mph N/A   Clear
4:53 PM 50.0 °F - 15.1 °F 25% 29.72 in 10.0 mi West 19.6 mph 27.6 mph N/A   Clear
5:53 PM 48.9 °F - 15.1 °F 26% 29.75 in 10.0 mi West 18.4 mph 23.0 mph N/A   Clear
6:53 PM 44.1 °F 38.6 °F 16.0 °F 32% 29.78 in 10.0 mi WNW 10.4 mph - N/A   Clear
7:53 PM 45.0 °F 38.2 °F 16.0 °F 31% 29.78 in 10.0 mi West 15.0 mph 24.2 mph N/A   Clear
8:53 PM 44.1 °F 38.6 °F 17.1 °F 34% 29.81 in 10.0 mi West 10.4 mph 20.7 mph N/A   Clear
9:53 PM 32.0 °F 24.8 °F 15.1 °F 50% 29.86 in 10.0 mi NE 8.1 mph - N/A   Clear
10:53 PM 39.0 °F - 17.1 °F 41% 29.85 in 10.0 mi Calm Calm - N/A   Clear
11:53 PM 33.1 °F 27.7 °F 16.0 °F 50% 29.86 in 10.0 mi SSW 5.8 mph - N/A   Clear